This demonstration page uses our WeatherBlox Daily Observations layout. Learn more.

Left ArrowRight Arrow

53.62937, 11.41316

Hourly Observations for July 23, 2016

Temp ( °F °C ) Dew Point ( °F °C ) Humidity (%) Winds ( mph kmh ) Pressure ( in mb ) Visibility ( mi km ) Precip ( " mm )
6:20 am 06:20 Mostly Sunny 57 14 54 12 88 88 NE 1 2 30.09 1019 7 11 N/A
6:50 am 06:50 Mostly Sunny 61 16 55 13 83 83 NE 2 4 30.09 1019 7 11 N/A
7:20 am 07:20 Mostly Sunny 64 18 55 13 73 73 ENE 3 6 30.09 1019 7 11 N/A
7:50 am 07:50 Mostly Sunny 66 19 54 12 64 64 E 5 7 30.09 1019 7 11 N/A
8:20 am 08:20 Mostly Sunny 68 20 52 11 56 56 ENE 6 9 30.09 1019 7 11 N/A
8:50 am 08:50 Mostly Sunny 72 22 54 12 53 53 ENE 5 7 30.09 1019 7 11 N/A
9:20 am 09:20 Mostly Sunny 73 23 54 12 50 50 ENE 7 11 30.09 1019 7 11 N/A
9:50 am 09:50 Mostly Sunny 73 23 54 12 50 50 ENE 7 11 30.09 1019 7 11 N/A
10:20 am 10:20 Mostly Sunny 75 24 50 10 41 41 ENE 9 15 30.09 1019 7 11 N/A
10:50 am 10:50 Mostly Sunny 77 25 46 8 34 34 ENE 9 15 30.09 1019 7 11 N/A
11:20 am 11:20 Mostly Sunny 79 26 48 9 34 34 E 10 17 30.09 1019 7 11 N/A
11:50 am 11:50 Mostly Sunny 81 27 52 11 37 37 E 12 19 30.09 1019 7 11 N/A
12:20 pm 12:20 Mostly Sunny 79 26 54 12 42 42 ENE 13 20 30.09 1019 7 11 N/A
12:50 pm 12:50 Mostly Sunny 79 26 54 12 42 42 ENE 9 15 30.09 1019 7 11 N/A
1:20 pm 13:20 Mostly Sunny 79 26 54 12 42 42 NE 8 13 30.09 1019 7 11 N/A
1:50 pm 13:50 Mostly Sunny 82 28 55 13 40 40 E 6 9 30.09 1019 7 11 N/A
2:20 pm 14:20 Mostly Sunny 81 27 57 14 45 45 NE 8 13 30.09 1019 7 11 N/A
2:50 pm 14:50 Mostly Sunny 81 27 57 14 45 45 E 8 13 30.09 1019 7 11 N/A
3:20 pm 15:20 Mostly Sunny 82 28 57 14 42 42 ENE 8 13 30.09 1019 7 11 N/A
3:50 pm 15:50 Mostly Sunny 81 27 57 14 45 45 NE 7 11 30.09 1019 7 11 N/A
4:20 pm 16:20 Mostly Sunny 81 27 59 15 48 48 ENE 7 11 30.06 1018 7 11 N/A
4:50 pm 16:50 Mostly Sunny 81 27 57 14 45 45 E 9 15 30.06 1018 7 11 N/A
5:20 pm 17:20 Mostly Sunny 82 28 59 15 45 45 ENE 8 13 30.06 1018 7 11 N/A
5:50 pm 17:50 Mostly Sunny 81 27 59 15 48 48 NE 8 13 30.06 1018 7 11 N/A
6:20 pm 18:20 Mostly Sunny 81 27 59 15 48 48 NE 10 17 30.06 1018 7 11 N/A
6:50 pm 18:50 Mostly Sunny 79 26 59 15 51 51 NE 10 17 30.06 1018 7 11 N/A

Powered by AerisWeather